Tiempo cada hora Barskoe

Hoy, 7 Marzo, Domingo

Tiempo Temperatura Precipitaciones Viento Presión Humedad
00:00 -14°C° 0 mm 2 mps 748 mmHg 92%
01:00 -15°C° 0 mm 2 mps 748 mmHg 92%
02:00 -15°C° 0 mm 2 mps 747 mmHg 92%
03:00 -15°C° 0 mm 2 mps 747 mmHg 93%
04:00 -15°C° 0 mm 3 mps 746 mmHg 91%
05:00 -14°C° 0 mm 3 mps 745 mmHg 90%
06:00 -14°C° 0 mm 4 mps 744 mmHg 89%
07:00 -13°C° 0 mm 5 mps 743 mmHg 88%
08:00 -12°C° 0 mm 6 mps 742 mmHg 86%
09:00 -12°C° 0 mm 7 mps 741 mmHg 86%
10:00 -11°C° 0.6 mm 7 mps 740 mmHg 87%
11:00 -9°C° 0.6 mm 7 mps 739 mmHg 89%
12:00 -8°C° 0.6 mm 7 mps 738 mmHg 91%
13:00 -8°C° 0.7 mm 7 mps 737 mmHg 92%
14:00 -7°C° 0.7 mm 7 mps 736 mmHg 92%
15:00 -7°C° 0.7 mm 7 mps 735 mmHg 93%
16:00 -5°C° 0.8 mm 6 mps 735 mmHg 94%
17:00 -5°C° 0.8 mm 5 mps 734 mmHg 94%
18:00 -5°C° 0.8 mm 5 mps 734 mmHg 94%
19:00 -5°C° 0.5 mm 4 mps 734 mmHg 94%
20:00 -6°C° 0.5 mm 3 mps 734 mmHg 94%
21:00 -7°C° 0.5 mm 2 mps 734 mmHg 93%
22:00 -7°C° 0 mm 2 mps 734 mmHg 93%
23:00 -8°C° 0 mm 2 mps 734 mmHg 92%

Mañana, 8 Marzo, Lunes

Tiempo Temperatura Precipitaciones Viento Presión Humedad
00:00 -10°C° 0 mm 3 mps 735 mmHg 92%
01:00 -10°C° 0 mm 3 mps 735 mmHg 91%
02:00 -10°C° 0 mm 3 mps 736 mmHg 89%
03:00 -12°C° 0 mm 3 mps 736 mmHg 88%
04:00 -12°C° 0 mm 3 mps 736 mmHg 90%
05:00 -12°C° 0 mm 3 mps 736 mmHg 91%
06:00 -13°C° 0 mm 3 mps 735 mmHg 93%
07:00 -12°C° 0.2 mm 3 mps 735 mmHg 93%
08:00 -10°C° 0.2 mm 3 mps 735 mmHg 93%
09:00 -9°C° 0.2 mm 4 mps 735 mmHg 93%
10:00 -9°C° 0.4 mm 4 mps 736 mmHg 88%
11:00 -8°C° 0.4 mm 5 mps 736 mmHg 83%
12:00 -8°C° 0.4 mm 5 mps 737 mmHg 78%
13:00 -8°C° 0.2 mm 5 mps 738 mmHg 76%
14:00 -7°C° 0.2 mm 5 mps 738 mmHg 74%
15:00 -7°C° 0.2 mm 5 mps 739 mmHg 73%
16:00 -9°C° 0.1 mm 4 mps 740 mmHg 78%
17:00 -9°C° 0.1 mm 3 mps 741 mmHg 82%
18:00 -9°C° 0.1 mm 2 mps 741 mmHg 87%
19:00 -10°C° 0 mm 2 mps 742 mmHg 89%
20:00 -13°C° 0 mm 2 mps 743 mmHg 91%
21:00 -14°C° 0 mm 2 mps 744 mmHg 93%
22:00 -15°C° 0 mm 2 mps 744 mmHg 94%
23:00 -16°C° 0 mm 2 mps 744 mmHg 95%

Pasado mañana, 9 Marzo, Martes

Tiempo Temperatura Precipitaciones Viento Presión Humedad
00:00 -16°C° 0 mm 2 mps 744 mmHg 96%
01:00 -17°C° 0 mm 2 mps 745 mmHg 96%
02:00 -17°C° 0 mm 2 mps 745 mmHg 96%
03:00 -18°C° 0 mm 2 mps 746 mmHg 97%
04:00 -17°C° 0 mm 2 mps 746 mmHg 96%
05:00 -17°C° 0 mm 2 mps 747 mmHg 96%
06:00 -17°C° 0 mm 2 mps 747 mmHg 95%
07:00 -16°C° 0 mm 2 mps 747 mmHg 94%
08:00 -17°C° 0 mm 3 mps 748 mmHg 93%
09:00 -17°C° 0 mm 3 mps 748 mmHg 92%
10:00 -16°C° 0 mm 3 mps 749 mmHg 90%
11:00 -16°C° 0 mm 3 mps 749 mmHg 89%
12:00 -15°C° 0 mm 3 mps 749 mmHg 87%
13:00 -15°C° 0 mm 3 mps 750 mmHg 86%
14:00 -15°C° 0 mm 3 mps 750 mmHg 85%
15:00 -14°C° 0 mm 3 mps 751 mmHg 85%
16:00 -15°C° 0 mm 3 mps 751 mmHg 87%
17:00 -16°C° 0 mm 3 mps 751 mmHg 89%
18:00 -17°C° 0 mm 2 mps 751 mmHg 91%
19:00 -18°C° 0 mm 2 mps 752 mmHg 93%
20:00 -19°C° 0 mm 2 mps 753 mmHg 94%
21:00 -21°C° 0 mm 2 mps 753 mmHg 95%
22:00 -23°C° 0 mm 2 mps 754 mmHg 96%
23:00 -24°C° 0 mm 2 mps 754 mmHg 97%

10 Marzo, Miércoles

Tiempo Temperatura Precipitaciones Viento Presión Humedad
00:00 -24°C° 0 mm 2 mps 754 mmHg 98%
01:00 -25°C° 0 mm 2 mps 755 mmHg 98%
02:00 -26°C° 0 mm 2 mps 755 mmHg 97%
03:00 -27°C° 0 mm 2 mps 755 mmHg 97%
04:00 -27°C° 0 mm 2 mps 756 mmHg 97%
05:00 -28°C° 0 mm 2 mps 756 mmHg 97%
06:00 -29°C° 0 mm 2 mps 757 mmHg 97%
07:00 -28°C° 0 mm 2 mps 757 mmHg 96%
08:00 -27°C° 0 mm 2 mps 757 mmHg 94%
09:00 -25°C° 0 mm 2 mps 758 mmHg 93%
10:00 -23°C° 0 mm 2 mps 758 mmHg 87%
11:00 -20°C° 0 mm 2 mps 758 mmHg 82%
12:00 -18°C° 0 mm 2 mps 758 mmHg 77%
13:00 -17°C° 0 mm 2 mps 758 mmHg 77%
14:00 -16°C° 0 mm 2 mps 758 mmHg 77%
15:00 -15°C° 0 mm 2 mps 758 mmHg 77%
16:00 -16°C° 0 mm 2 mps 758 mmHg 80%
17:00 -15°C° 0 mm 1 mps 758 mmHg 84%
18:00 -16°C° 0 mm 1 mps 758 mmHg 88%
19:00 -17°C° 0 mm 1 mps 759 mmHg 90%
20:00 -19°C° 0 mm 1 mps 759 mmHg 93%
21:00 -20°C° 0 mm 0 mps 759 mmHg 95%
22:00 -21°C° 0 mm 0 mps 759 mmHg 95%
23:00 -21°C° 0 mm 0 mps 760 mmHg 96%

11 Marzo, Jueves

Tiempo Temperatura Precipitaciones Viento Presión Humedad
00:00 -22°C° 0 mm 0 mps 760 mmHg 97%
01:00 -23°C° 0 mm 0 mps 760 mmHg 97%
02:00 -23°C° 0 mm 0 mps 760 mmHg 97%
03:00 -23°C° 0 mm 0 mps 760 mmHg 97%
04:00 -23°C° 0 mm 0 mps 760 mmHg 98%
05:00 -24°C° 0 mm 0 mps 760 mmHg 98%
06:00 -24°C° 0 mm 0 mps 760 mmHg 98%
07:00 -22°C° 0 mm 0 mps 761 mmHg 95%
08:00 -20°C° 0 mm 0 mps 761 mmHg 93%
09:00 -18°C° 0 mm 1 mps 761 mmHg 90%
10:00 -16°C° 0 mm 1 mps 761 mmHg 86%
11:00 -14°C° 0 mm 1 mps 761 mmHg 82%
12:00 -12°C° 0 mm 1 mps 761 mmHg 78%
13:00 -11°C° 0 mm 1 mps 761 mmHg 78%
14:00 -13°C° 0 mm 2 mps 761 mmHg 77%
15:00 -12°C° 0 mm 2 mps 760 mmHg 77%
16:00 -13°C° 0 mm 2 mps 760 mmHg 81%
17:00 -15°C° 0 mm 2 mps 760 mmHg 85%
18:00 -16°C° 0 mm 2 mps 760 mmHg 89%
19:00 -18°C° 0 mm 2 mps 760 mmHg 90%
20:00 -19°C° 0 mm 2 mps 760 mmHg 91%
21:00 -20°C° 0 mm 2 mps 760 mmHg 92%
22:00 -20°C° 0 mm 2 mps 760 mmHg 93%
23:00 -22°C° 0 mm 3 mps 760 mmHg 94%

12 Marzo, Viernes

Tiempo Temperatura Precipitaciones Viento Presión Humedad
00:00 -22°C° 0 mm 3 mps 760 mmHg 96%
01:00 -22°C° 0 mm 3 mps 760 mmHg 95%
02:00 -21°C° 0 mm 3 mps 760 mmHg 95%
03:00 -19°C° 0 mm 3 mps 759 mmHg 95%
04:00 -19°C° 0 mm 3 mps 759 mmHg 95%
05:00 -21°C° 0 mm 3 mps 759 mmHg 94%
06:00 -22°C° 0 mm 4 mps 759 mmHg 94%
07:00 -20°C° 0 mm 4 mps 758 mmHg 92%
08:00 -19°C° 0 mm 4 mps 758 mmHg 90%
09:00 -19°C° 0 mm 5 mps 758 mmHg 88%
10:00 -17°C° 0 mm 5 mps 757 mmHg 86%
11:00 -14°C° 0 mm 5 mps 757 mmHg 84%
12:00 -12°C° 0 mm 6 mps 756 mmHg 82%
13:00 -12°C° 0 mm 6 mps 756 mmHg 81%
14:00 -11°C° 0 mm 6 mps 755 mmHg 80%
15:00 -12°C° 0 mm 7 mps 755 mmHg 79%
16:00 -12°C° 0 mm 7 mps 754 mmHg 80%
17:00 -13°C° 0 mm 7 mps 753 mmHg 81%
18:00 -13°C° 0 mm 7 mps 753 mmHg 83%
19:00 -13°C° 0.2 mm 7 mps 752 mmHg 85%
20:00 -14°C° 0.2 mm 7 mps 752 mmHg 88%
21:00 -14°C° 0.2 mm 7 mps 752 mmHg 91%
22:00 -14°C° 0.2 mm 7 mps 751 mmHg 91%
23:00 -13°C° 0.2 mm 7 mps 750 mmHg 91%
Mostrar más

Necesitamos Su Consentimiento

Meteoprog y nuestros Proveedores de Servicios pueden almacenar y acceder a sus datos personales como cookies, identificadores de dispositivo u otras tecnologías similares de su dispositivo y procesar dichos datos para personalizar contenido y anuncios, además de ofrecer funciones de redes sociales y analizar el tráfico.

  • Almacenar y/o acceder a información en su dispositivo

    Se puede almacenar o acceder a cookies, identificadores de dispositivo u otra información de su dispositivo para los fines anteriormente indicados.

  • Anuncios y contenido personalizados, medición de anuncios y contenido, percepciones del público, y desarrollo de productos

    Los anuncios y el contenido pueden personalizarse en base a su perfil. Se pueden añadir más datos para personalizar mejor los anuncios y contenidos. Se puede medir el rendimiento de los anuncios y contenidos. Se puede obtener la percepción sobre el público que ha visto los anuncios y contenidos. Dichos datos pueden usarse para desarrollar o mejorar la experiencia del usuario, sistemas y software.

Al hacer clic en ‘Estoy De Acuerdo’ usted permitirá el uso de las cookies, identificadores de dispositivo, balizas web u otras tecnologías similares indicadas. Su configuración puede cambiarse desde el navegador de su dispositivo.

Para ciertos fines, los intereses legítimos pueden ser considerados por encima del consentimiento. Puede leer más sobre ello en nuestra Política de Privacidad y Cookies.